DW0427 Weather Reports


time (UTC)temp
F
wind
direction
speed
knots
gust
knots
rain 1hr
in
rain 24hr
in
rain mn
in
humidity
%
barometer
mb
20260506185607 53 46 3.5 7.0 0.00 0.00 0.00 70 1012.7
20260506185407 53 45 3.5 7.0 0.00 0.00 0.00 71 1012.7
20260506185207 53 46 3.5 7.0 0.00 0.00 0.00 70 1012.8
20260506185007 53 46 3.5 7.0 0.00 0.00 0.00 71 1012.8
20260506184807 53 46 3.5 7.0 0.00 0.00 0.00 71 1012.7
20260506184607 53 46 3.5 7.0 0.00 0.00 0.00 71 1012.7
20260506184407 53 46 4.3 6.1 0.00 0.00 0.00 72 1012.8
20260506184208 53 46 4.3 6.1 0.00 0.00 0.00 73 1012.8
20260506183807 53 45 5.2 7.0 0.00 0.00 0.00 72 1012.9
20260506183607 53 45 4.3 9.6 0.00 0.00 0.00 72 1012.8
20260506183407 53 45 4.3 10.4 0.00 0.00 0.00 72 1012.8
20260506183207 53 46 4.3 10.4 0.00 0.00 0.00 71 1012.9
20260506183007 53 45 3.5 10.4 0.00 0.00 0.00 71 1012.8
20260506182807 53 45 3.5 10.4 0.00 0.00 0.00 70 1012.7
20260506182607 53 46 3.5 10.4 0.00 0.00 0.00 70 1012.8
20260506182208 54 45 4.3 7.8 0.00 0.00 0.00 70 1012.7
20260506182007 53 46 4.3 7.8 0.00 0.00 0.00 70 1012.6
20260506181807 53 46 4.3 7.8 0.00 0.00 0.00 70 1012.6
20260506181607 53 45 4.3 10.4 0.00 0.00 0.00 70 1012.5
20260506181407 53 45 4.3 10.4 0.00 0.00 0.00 70 1012.6
20260506181207 53 46 4.3 10.4 0.00 0.00 0.00 70 1012.6
20260506181007 53 45 4.3 10.4 0.00 0.00 0.00 70 1012.7
20260506180807 53 45 4.3 10.4 0.00 0.00 0.00 70 1012.6
20260506180407 53 45 4.3 10.4 0.00 0.00 0.00 70 1012.6
20260506180207 53 46 4.3 10.4 0.00 0.00 0.00 69 1012.6
20260506180007 53 46 4.3 10.4 0.00 0.00 0.00 69 1012.6
20260506175607 53 46 5.2 10.4 0.00 0.00 0.00 69 1012.5
20260506175407 54 45 5.2 7.8 0.00 0.00 0.00 69 1012.5
20260506175007 54 46 5.2 10.4 0.00 0.00 0.00 68 1012.6
20260506174807 54 46 5.2 10.4 0.00 0.00 0.00 68 1012.5
20260506174607 54 46 5.2 10.4 0.00 0.00 0.00 68 1012.5
20260506174407 54 46 5.2 10.4 0.00 0.00 0.00 69 1012.5
20260506174207 54 46 5.2 10.4 0.00 0.00 0.00 68 1012.6
20260506174022 54 46 5.2 8.7 0.00 0.00 0.00 69 1012.6
20260506173807 54 46 5.2 8.7 0.00 0.00 0.00 69 1012.6
20260506173607 54 45 6.1 8.7 0.00 0.00 0.00 69 1012.6
20260506173408 54 45 6.1 9.6 0.00 0.00 0.00 70 1012.6
20260506173007 54 45 5.2 10.4 0.00 0.00 0.00 70 1012.6
20260506172807 54 46 5.2 10.4 0.00 0.00 0.00 70 1012.6
20260506172607 54 46 5.2 10.4 0.00 0.00 0.00 70 1012.6
20260506172407 54 45 5.2 10.4 0.00 0.00 0.00 70 1012.6
20260506172207 54 45 5.2 9.6 0.00 0.00 0.00 70 1012.5
20260506172007 54 45 5.2 9.6 0.00 0.00 0.00 71 1012.6
20260506171807 54 46 5.2 9.6 0.00 0.00 0.00 71 1012.6
20260506171607 54 46 5.2 10.4 0.00 0.00 0.00 70 1012.5
20260506171407 54 46 5.2 10.4 0.00 0.00 0.00 70 1012.5
20260506171207 54 45 5.2 10.4 0.00 0.00 0.00 70 1012.6
20260506171007 54 45 5.2 10.4 0.00 0.00 0.00 70 1012.6
20260506170807 54 46 5.2 10.4 0.00 0.00 0.00 70 1012.7
20260506170607 54 45 5.2 10.4 0.00 0.00 0.00 70 1012.6
20260506170407 54 45 5.2 10.4 0.00 0.00 0.00 70 1012.7
20260506170207 54 46 5.2 10.4 0.00 0.00 0.00 70 1012.6
20260506165807 54 45 4.3 9.6 0.00 0.00 0.00 70 1012.8
20260506165207 54 45 3.5 8.7 0.00 0.00 0.00 69 1012.7
20260506164607 55 46 3.5 6.1 0.00 0.00 0.00 67 1012.7
20260506164408 55 46 3.5 6.1 0.00 0.00 0.00 67 1012.6
20260506164007 54 45 3.5 7.8 0.00 0.00 0.00 67 1012.6
20260506163807 54 46 3.5 7.8 0.00 0.00 0.00 67 1012.7
20260506163607 54 46 3.5 7.8 0.00 0.00 0.00 67 1012.7
20260506163407 54 46 3.5 7.8 0.00 0.00 0.00 66 1012.6
20260506163207 54 45 3.5 8.7 0.00 0.00 0.00 66 1012.7
20260506162807 54 45 3.5 8.7 0.00 0.00 0.00 66 1012.6
20260506162608 54 45 3.5 8.7 0.00 0.00 0.00 66 1012.7
20260506162407 55 46 3.5 8.7 0.00 0.00 0.00 66 1012.7
20260506162207 55 46 3.5 7.0 0.00 0.00 0.00 66 1012.8
20260506161607 55 46 2.6 7.0 0.00 0.00 0.00 65 1012.8
20260506161407 55 46 2.6 7.0 0.00 0.00 0.00 64 1012.8
20260506160807 55 45 2.6 7.0 0.00 0.00 0.00 63 1012.7
20260506160607 56 45 2.6 5.2 0.00 0.00 0.00 62 1012.7
20260506160207 56 46 2.6 5.2 0.00 0.00 0.00 59 1012.7
20260506160007 56 46 2.6 5.2 0.00 0.00 0.00 56 1012.7
20260506155607 56 45 2.6 5.2 0.00 0.00 0.00 55 1012.8
20260506155407 56 46 2.6 5.2 0.00 0.00 0.00 54 1012.9
20260506154607 57 45 3.5 6.1 0.00 0.00 0.00 53 1012.8
20260506154008 57 45 3.5 6.1 0.00 0.00 0.00 53 1012.7
20260506153807 57 46 3.5 6.1 0.00 0.00 0.00 53 1012.8
20260506153607 57 46 3.5 6.1 0.00 0.00 0.00 53 1012.8
20260506153407 57 46 3.5 5.2 0.00 0.00 0.00 53 1012.8
20260506153207 57 45 4.3 6.1 0.00 0.00 0.00 53 1012.8
20260506153007 57 46 4.3 6.1 0.00 0.00 0.00 53 1013.0
20260506152807 57 46 4.3 7.8 0.00 0.00 0.00 52 1012.9
20260506152407 57 45 3.5 7.8 0.00 0.00 0.00 52 1012.7
20260506152207 58 45 2.6 7.8 0.00 0.00 0.00 52 1012.8
20260506152007 58 45 2.6 7.8 0.00 0.00 0.00 51 1012.7
20260506151807 58 45 1.7 7.8 0.00 0.00 0.00 51 1012.7
20260506151607 58 45 1.7 7.0 0.00 0.00 0.00 51 1012.7
20260506151407 58 45 2.6 5.2 0.00 0.00 0.00 51 1012.8
20260506151207 58 45 2.6 4.3 0.00 0.00 0.00 51 1012.8
20260506151007 58 45 3.5 4.3 0.00 0.00 0.00 51 1012.8
20260506150807 58 45 3.5 5.2 0.00 0.00 0.00 51 1012.7
20260506150608 58 45 4.3 7.8 0.00 0.00 0.00 52 1012.7
20260506150407 58 45 4.3 7.8 0.00 0.00 0.00 51 1012.8
20260506150007 58 45 4.3 9.6 0.00 0.00 0.00 50 1012.8
20260506145807 58 46 4.3 9.6 0.00 0.00 0.00 51 1013.0
20260506145607 58 45 4.3 9.6 0.00 0.00 0.00 52 1013.0
20260506145407 58 46 3.5 9.6 0.00 0.00 0.00 52 1013.1
20260506145207 59 46 3.5 9.6 0.00 0.00 0.00 51 1013.0
20260506145008 59 46 3.5 9.6 0.00 0.00 0.00 50 1012.8
20260506144807 59 45 3.5 9.6 0.00 0.00 0.00 50 1013.0
20260506144607 59 45 3.5 9.6 0.00 0.00 0.00 48 1012.9
20260506144407 59 45 3.5 7.8 0.00 0.00 0.00 47 1012.9
20260506144007 59 45 2.6 7.8 0.00 0.00 0.00 45 1013.0
20260506143807 60 46 2.6 7.8 0.00 0.00 0.00 45 1012.9
20260506143607 60 45 2.6 7.8 0.00 0.00 0.00 46 1012.9
20260506143207 60 45 3.5 7.8 0.00 0.00 0.00 49 1013.0
20260506142807 59 46 3.5 6.1 0.00 0.00 0.00 52 1013.1
20260506142607 59 46 4.3 6.1 0.00 0.00 0.00 49 1013.1
20260506142407 59 45 4.3 8.7 0.00 0.00 0.00 47 1013.0
20260506142207 59 46 4.3 9.6 0.00 0.00 0.00 45 1013.0
20260506142007 59 46 4.3 9.6 0.00 0.00 0.00 48 1013.0
20260506141807 59 45 4.3 9.6 0.00 0.00 0.00 48 1013.1
20260506141407 59 46 4.3 10.4 0.00 0.00 0.00 50 1013.1
20260506141207 58 45 5.2 10.4 0.00 0.00 0.00 50 1013.1
20260506140808 58 45 5.2 10.4 0.00 0.00 0.00 51 1013.2
20260506140608 58 46 4.3 10.4 0.00 0.00 0.00 50 1013.2
20260506140408 59 45 4.3 9.6 0.00 0.00 0.00 49 1013.2
20260506140208 59 45 3.5 9.6 0.00 0.00 0.00 48 1013.1
20260506140008 59 46 3.5 9.6 0.00 0.00 0.00 48 1013.2
20260506135808 60 45 3.5 9.6 0.00 0.00 0.00 50 1013.2
20260506135408 60 46 3.5 6.1 0.00 0.00 0.00 50 1013.2
20260506135208 60 46 3.5 6.1 0.00 0.00 0.00 50 1013.1
20260506135008 59 46 3.5 7.0 0.00 0.00 0.00 54 1013.2
20260506134608 59 46 3.5 7.0 0.00 0.00 0.00 54 1013.2
20260506134408 59 46 3.5 7.8 0.00 0.00 0.00 52 1013.3
20260506134208 59 45 3.5 8.7 0.00 0.00 0.00 53 1013.2
20260506134008 59 45 3.5 8.7 0.00 0.00 0.00 52 1013.3
20260506133808 59 45 2.6 8.7 0.00 0.00 0.00 53 1013.3
20260506133608 58 45 2.6 8.7 0.00 0.00 0.00 54 1013.4
20260506133408 58 46 2.6 8.7 0.00 0.00 0.00 53 1013.4
20260506133208 58 45 3.5 7.0 0.00 0.00 0.00 52 1013.5
20260506133008 58 45 3.5 7.0 0.00 0.00 0.00 53 1013.4
20260506132808 58 46 3.5 7.0 0.00 0.00 0.00 51 1013.5
20260506132608 59 45 3.5 7.8 0.00 0.00 0.00 50 1013.5
20260506132408 59 46 3.5 7.8 0.00 0.00 0.00 49 1013.5
20260506132208 59 45 4.3 8.7 0.00 0.00 0.00 52 1013.6
20260506131808 58 45 3.5 8.7 0.00 0.00 0.00 53 1013.5
20260506131608 58 45 3.5 8.7 0.00 0.00 0.00 55 1013.6
20260506131408 58 45 3.5 8.7 0.00 0.00 0.00 53 1013.5
20260506131208 58 45 2.6 8.7 0.00 0.00 0.00 54 1013.6
20260506131008 57 46 2.6 7.8 0.00 0.00 0.00 51 1013.5
20260506130808 57 46 2.6 7.8 0.00 0.00 0.00 55 1013.5
20260506130607 57 45 1.7 7.8 0.00 0.00 0.00 53 1013.5
20260506130208 56 45 1.7 5.2 0.00 0.00 0.00 54 1013.5
20260506130008 56 45 1.7 4.3 0.00 0.00 0.00 55 1013.5
20260506125808 56 45 2.6 5.2 0.00 0.00 0.00 53 1013.5
20260506125608 56 46 2.6 5.2 0.00 0.00 0.00 54 1013.5
20260506125408 56 46 2.6 5.2 0.00 0.00 0.00 54 1013.5
20260506125208 56 45 2.6 5.2 0.00 0.00 0.00 55 1013.6
20260506125008 56 46 3.5 5.2 0.00 0.00 0.00 56 1013.6
20260506124808 56 45 3.5 5.2 0.00 0.00 0.00 55 1013.6
20260506124408 57 46 3.5 5.2 0.00 0.00 0.00 55 1013.7
20260506124008 57 46 3.5 6.1 0.00 0.00 0.00 57 1013.8
20260506123808 57 46 3.5 7.0 0.00 0.00 0.00 58 1013.9
20260506123608 56 46 3.5 7.0 0.00 0.00 0.00 60 1013.8
20260506123408 56 46 2.6 7.0 0.00 0.00 0.00 59 1013.8
20260506123208 56 46 2.6 7.0 0.00 0.00 0.00 59 1013.8
20260506123008 56 46 1.7 7.0 0.00 0.00 0.00 58 1013.9
20260506122808 56 45 1.7 7.0 0.00 0.00 0.00 57 1013.7
20260506122608 56 46 1.7 6.1 0.00 0.00 0.00 57 1013.7
20260506122423 56 45 1.7 6.1 0.00 0.00 0.00 56 1013.7
20260506122208 56 45 1.7 5.2 0.00 0.00 0.00 55 1013.7
20260506122008 56 45 2.6 5.2 0.00 0.00 0.00 54 1013.7
20260506121808 56 45 2.6 4.3 0.00 0.00 0.00 53 1013.6
20260506121608 57 45 2.6 5.2 0.00 0.00 0.00 56 1013.7
20260506121408 57 46 2.6 5.2 0.00 0.00 0.00 54 1013.8
20260506121209 57 45 3.5 6.1 0.00 0.00 0.00 54 1013.8
20260506121008 57 46 3.5 6.1 0.00 0.00 0.00 55 1013.8
20260506120808 57 46 3.5 6.1 0.00 0.00 0.00 55 1013.9
20260506120608 57 46 3.5 7.8 0.00 0.00 0.00 53 1013.8
20260506120208 57 45 2.6 7.8 0.00 0.00 0.00 52 1013.7
20260506115808 57 46 1.7 7.8 0.00 0.00 0.00 52 1013.9
20260506115608 58 45 1.7 5.2 0.00 0.00 0.00 52 1013.9
20260506115408 57 45 1.7 5.2 0.00 0.00 0.00 55 1014.1
20260506115008 56 45 1.7 5.2 0.00 0.00 0.00 60 1014.0
20260506114608 55 45 1.7 5.2 0.00 0.00 0.00 55 1013.8
20260506114409 55 45 1.7 3.5 0.00 0.00 0.00 55 1014.1
20260506114208 55 45 1.7 3.5 0.00 0.00 0.00 56 1014.2
20260506114008 55 45 1.7 4.3 0.00 0.00 0.00 56 1014.1
20260506113608 55 46 2.6 4.3 0.00 0.00 0.00 55 1013.9
20260506113208 55 46 2.6 6.1 0.00 0.00 0.00 56 1014.2
20260506113008 56 45 3.5 6.1 0.00 0.00 0.00 55 1014.2
20260506112809 56 46 3.5 6.1 0.00 0.00 0.00 55 1014.2
20260506112608 56 46 3.5 6.1 0.00 0.00 0.00 48 1014.2
20260506112408 57 45 3.5 9.6 0.00 0.00 0.00 49 1014.1
20260506112208 57 46 2.6 9.6 0.00 0.00 0.00 50 1014.2
20260506111608 58 45 1.7 9.6 0.00 0.00 0.00 56 1014.2
20260506111408 58 45 0.9 4.3 0.00 0.00 0.00 56 1014.1
20260506111208 58 45 0.9 4.3 0.00 0.00 0.00 54 1014.1
20260506111008 57 45 0.9 3.5 0.00 0.00 0.00 53 1014.1
20260506110809 57 45 0.9 2.6 0.00 0.00 0.00 56 1014.4
20260506110208 55 45 2.6 3.5 0.00 0.00 0.00 52 1014.4
20260506110008 55 45 2.6 3.5 0.00 0.00 0.00 52 1014.4
20260506105808 55 46 2.6 4.3 0.00 0.00 0.00 51 1014.4
20260506105408 55 45 2.6 4.3 0.00 0.00 0.00 54 1014.4
20260506105208 56 45 1.7 4.3 0.00 0.00 0.00 54 1014.4
20260506105008 56 45 1.7 4.3 0.00 0.00 0.00 54 1014.4
20260506104608 56 45 2.6 4.3 0.00 0.00 0.00 54 1014.4
20260506104208 56 45 2.6 4.3 0.00 0.00 0.00 55 1014.4
20260506104008 56 46 2.6 6.1 0.00 0.00 0.00 57 1014.5
20260506103808 56 46 2.6 7.0 0.00 0.00 0.00 54 1014.5
20260506103408 56 45 1.7 7.0 0.00 0.00 0.00 61 1014.6
20260506103008 56 46 1.7 7.0 0.00 0.00 0.00 57 1014.5
20260506102808 55 45 1.7 5.2 0.00 0.00 0.00 59 1014.5
20260506102608 55 45 1.7 3.5 0.00 0.00 0.00 59 1014.7
20260506102208 54 46 1.7 4.3 0.00 0.00 0.00 58 1014.7
20260506102008 54 45 1.7 4.3 0.00 0.00 0.00 58 1014.8
20260506101808 54 45 1.7 4.3 0.00 0.00 0.00 57 1014.7
20260506101608 54 45 1.7 4.3 0.00 0.00 0.00 58 1014.7
20260506101408 55 45 1.7 3.5 0.00 0.00 0.00 59 1014.7
20260506101208 54 45 1.7 3.5 0.00 0.00 0.00 59 1014.7
20260506101008 54 45 1.7 3.5 0.00 0.00 0.00 60 1014.9
20260506100808 54 45 1.7 3.5 0.00 0.00 0.00 59 1014.9
20260506100608 54 45 1.7 3.5 0.00 0.00 0.00 60 1014.9
20260506100408 54 45 1.7 3.5 0.00 0.00 0.00 62 1015.0
20260506100208 54 45 1.7 3.5 0.00 0.00 0.00 65 1014.9
20260506100008 54 45 1.7 3.5 0.00 0.00 0.00 61 1015.0
20260506095808 54 45 1.7 4.3 0.00 0.00 0.00 60 1014.9
20260506095408 54 45 1.7 4.3 0.00 0.00 0.00 60 1015.0
20260506095208 54 45 2.6 4.3 0.00 0.00 0.00 62 1015.1
20260506094808 53 45 2.6 5.2 0.00 0.00 0.00 64 1014.9
20260506094608 53 46 2.6 6.1 0.00 0.00 0.00 61 1014.9
20260506094408 53 46 2.6 6.1 0.00 0.00 0.00 64 1014.8
20260506094208 53 46 1.7 6.1 0.00 0.00 0.00 65 1014.9
20260506094008 53 46 1.7 6.1 0.00 0.00 0.00 63 1015.0
20260506093808 53 46 1.7 6.1 0.00 0.00 0.00 62 1014.9
20260506093608 53 46 1.7 4.3 0.00 0.00 0.00 62 1015.0
20260506093408 53 46 1.7 4.3 0.00 0.00 0.00 64 1015.0
20260506093208 52 45 1.7 4.3 0.00 0.00 0.00 62 1015.1
20260506093008 52 45 1.7 4.3 0.00 0.00 0.00 61 1015.1
20260506092808 52 45 1.7 4.3 0.00 0.00 0.00 61 1015.2
20260506092608 52 45 1.7 4.3 0.00 0.00 0.00 64 1015.1
20260506092208 52 45 1.7 4.3 0.00 0.00 0.00 65 1015.1
20260506092008 51 45 2.6 4.3 0.00 0.00 0.00 66 1015.2
20260506091808 51 45 2.6 4.3 0.00 0.00 0.00 65 1015.2
20260506091608 51 45 2.6 4.3 0.00 0.00 0.00 63 1015.2
20260506091408 51 46 2.6 5.2 0.00 0.00 0.00 64 1015.1
20260506091208 51 46 2.6 5.2 0.00 0.00 0.00 64 1015.0
20260506091008 51 46 2.6 5.2 0.00 0.00 0.00 64 1015.1
20260506090808 51 45 1.7 5.2 0.00 0.00 0.00 64 1015.1
20260506090608 51 45 1.7 5.2 0.00 0.00 0.00 65 1015.0
20260506090010 51 45 2.6 3.5 0.00 0.00 0.00 66 1015.1
20260506085808 51 45 2.6 5.2 0.00 0.00 0.00 66 1015.1
20260506085608 50 46 2.6 5.2 0.00 0.00 0.00 65 1015.2
20260506085408 50 46 2.6 5.2 0.00 0.00 0.00 65 1015.1
20260506085208 50 46 1.7 5.2 0.00 0.00 0.00 64 1015.1
20260506085008 50 45 1.7 5.2 0.00 0.00 0.00 64 1015.2
20260506084808 51 45 0.9 4.3 0.00 0.00 0.00 64 1015.2
20260506084609 51 45 0.9 4.3 0.00 0.00 0.00 64 1015.2
20260506084408 51 45 0.9 3.5 0.00 0.00 0.00 67 1015.2
20260506084208 51 45 1.7 3.5 0.00 0.00 0.00 67 1015.2
20260506084008 50 45 1.7 3.5 0.00 0.00 0.00 68 1015.2
20260506083808 50 45 1.7 3.5 0.00 0.00 0.00 67 1015.3
20260506083608 49 45 1.7 3.5 0.00 0.00 0.00 66 1015.4
20260506083408 49 45 1.7 3.5 0.00 0.00 0.00 66 1015.4
20260506083208 49 45 0.9 3.5 0.00 0.00 0.00 66 1015.3
20260506083008 49 45 0.9 3.5 0.00 0.00 0.00 67 1015.4
20260506082808 49 45 0.9 3.5 0.00 0.00 0.00 66 1015.5
20260506082608 49 45 1.7 3.5 0.00 0.00 0.00 68 1015.5
20260506082408 49 45 1.7 3.5 0.00 0.00 0.00 69 1015.3
20260506082208 48 45 1.7 3.5 0.00 0.00 0.00 68 1015.3
20260506082009 48 45 1.7 4.3 0.00 0.00 0.00 69 1015.3
20260506081808 48 45 1.7 4.3 0.00 0.00 0.00 67 1015.3
20260506081608 48 46 1.7 4.3 0.00 0.00 0.00 67 1015.5
20260506081408 48 45 1.7 4.3 0.00 0.00 0.00 68 1015.5
20260506081208 48 45 1.7 4.3 0.00 0.00 0.00 68 1015.4
20260506080808 47 45 1.7 4.3 0.00 0.00 0.00 70 1015.4
20260506080408 47 46 1.7 4.3 0.00 0.00 0.00 70 1015.4
20260506080208 46 45 1.7 4.3 0.00 0.00 0.00 70 1015.4
20260506073408 44 46 2.6 4.3 0.00 0.00 0.00 73 1015.3
20260506073208 44 46 2.6 4.3 0.00 0.00 0.00 72 1015.3
20260506072808 44 45 2.6 4.3 0.00 0.00 0.00 72 1015.4
20260506072608 44 45 2.6 4.3 0.00 0.00 0.00 74 1015.4
20260506072408 44 45 2.6 5.2 0.00 0.00 0.00 73 1015.3
20260506072008 44 46 1.7 5.2 0.00 0.00 0.00 72 1015.3
20260506071808 44 45 1.7 5.2 0.00 0.00 0.00 73 1015.3
20260506071608 44 45 1.7 5.2 0.00 0.00 0.00 73 1015.4
20260506071408 44 45 1.7 4.3 0.00 0.00 0.00 74 1015.3
20260506071208 44 45 1.7 3.5 0.00 0.00 0.00 74 1015.3
20260506071008 44 45 2.6 3.5 0.00 0.00 0.00 74 1015.3
20260506070808 44 45 2.6 3.5 0.00 0.00 0.00 75 1015.4
20260506070408 43 46 1.7 5.2 0.00 0.00 0.00 75 1015.4
20260506070208 43 46 1.7 5.2 0.00 0.00 0.00 74 1015.3
20260506062408 41 45 0.9 2.6 0.00 0.00 0.00 77 1015.2
20260506062208 41 45 0.9 3.5 0.00 0.00 0.00 77 1015.2
20260506062009 41 45 1.7 3.5 0.00 0.00 0.00 78 1015.2
20260506061808 41 45 1.7 3.5 0.00 0.00 0.00 78 1015.2
20260506061608 41 45 1.7 3.5 0.00 0.00 0.00 78 1015.2
20260506061408 41 45 1.7 3.5 0.00 0.00 0.00 78 1015.2
20260506061208 41 45 2.6 3.5 0.00 0.00 0.00 78 1015.1
20260506061008 41 45 2.6 3.5 0.00 0.00 0.00 79 1015.2
20260506060808 41 45 2.6 3.5 0.00 0.00 0.00 79 1015.2
20260506060608 41 45 2.6 3.5 0.00 0.00 0.00 79 1015.2
20260506060207 41 45 2.6 4.3 0.00 0.00 0.00 79 1015.0
20260506051408 40 45 2.6 3.5 0.00 0.00 0.00 79 1014.8
20260506051208 40 45 1.7 3.5 0.00 0.00 0.00 79 1014.8
20260506051009 40 45 1.7 3.5 0.00 0.00 0.00 79 1014.8
20260506050808 41 45 1.7 3.5 0.00 0.00 0.00 79 1014.8
20260506050408 41 45 0.9 3.5 0.00 0.00 0.00 79 1014.8
20260506050208 41 45 0.9 3.5 0.00 0.00 0.00 78 1014.9
20260506045008 41 45 2.6 4.3 0.00 0.00 0.00 78 1014.8
20260506044808 41 45 2.6 4.3 0.00 0.00 0.00 78 1014.8
20260506044608 41 45 2.6 4.3 0.00 0.00 0.00 78 1014.8
20260506044408 41 45 1.7 4.3 0.00 0.00 0.00 78 1014.8
20260506044009 42 45 0.9 4.3 0.00 0.00 0.00 78 1014.8
20260506043808 42 45 0.9 4.3 0.00 0.00 0.00 78 1014.8
20260506043407 42 45 0.9 3.5 0.00 0.00 0.00 78 1014.9
20260506043008 42 45 0.9 3.5 0.00 0.00 0.00 78 1014.9
20260506042808 42 45 0.9 3.5 0.00 0.00 0.00 78 1014.9
20260506042608 42 45 0.9 3.5 0.00 0.00 0.00 77 1014.9
20260506042408 42 45 0.9 2.6 0.00 0.00 0.00 77 1014.9
20260506042208 42 45 0.9 2.6 0.00 0.00 0.00 77 1015.0
20260506042007 42 45 0.9 2.6 0.00 0.00 0.00 77 1015.0
20260506041808 42 45 1.7 2.6 0.00 0.00 0.00 77 1014.9
20260506041608 42 45 1.7 2.6 0.00 0.00 0.00 77 1015.0
20260506041408 42 45 1.7 2.6 0.00 0.00 0.00 77 1015.0
20260506041208 42 45 1.7 2.6 0.00 0.00 0.00 76 1015.0
20260506041008 42 45 0.9 2.6 0.00 0.00 0.00 77 1015.0
20260506040808 42 45 0.9 2.6 0.00 0.00 0.00 76 1015.1
20260506040607 42 45 0.9 2.6 0.00 0.00 0.00 76 1015.1
20260506040205 42 45 0.0 2.6 0.00 0.00 0.00 76 1015.1
20260506040007 42 45 0.0 1.7 0.00 0.00 0.00 76 1015.1
20260506035805 42 45 0.9 0.9 0.00 0.00 0.00 76 1015.1
20260506035608 42 45 0.9 1.7 0.00 0.00 0.00 76 1015.1
20260506035405 42 45 0.9 1.7 0.00 0.00 0.00 76 1015.1
20260506035209 42 45 0.9 1.7 0.00 0.00 0.00 76 1015.2
20260506034808 42 45 0.9 2.6 0.00 0.00 0.00 76 1015.2
20260506034605 42 45 0.9 2.6 0.00 0.00 0.00 76 1015.2
20260506034408 42 45 0.9 2.6 0.00 0.00 0.00 76 1015.2
20260506034205 42 45 0.9 2.6 0.00 0.00 0.00 76 1015.2
20260506034008 42 45 0.9 2.6 0.00 0.00 0.00 76 1015.2
20260506033809 42 45 0.9 1.7 0.00 0.00 0.00 76 1015.2
20260506033608 42 45 0.9 1.7 0.00 0.00 0.00 76 1015.3
20260506033408 42 45 1.7 2.6 0.00 0.00 0.00 76 1015.3
20260506033008 42 45 1.7 3.5 0.00 0.00 0.00 76 1015.3
20260506032808 42 45 0.9 3.5 0.00 0.00 0.00 76 1015.4
20260506032205 42 45 0.9 2.6 0.00 0.00 0.00 76 1015.4
20260506032006 42 45 0.9 1.7 0.00 0.00 0.00 76 1015.4
20260506031807 42 45 0.9 1.7 0.00 0.00 0.00 76 1015.4
20260506031605 42 45 0.9 2.6 0.00 0.00 0.00 76 1015.3
20260506031408 42 45 1.7 2.6 0.00 0.00 0.00 76 1015.3
20260506031205 42 45 1.7 2.6 0.00 0.00 0.00 76 1015.4
20260506031008 42 45 1.7 2.6 0.00 0.00 0.00 76 1015.4
20260506030805 42 45 1.7 2.6 0.00 0.00 0.00 75 1015.4
20260506030608 43 45 1.7 2.6 0.00 0.00 0.00 75 1015.3
20260506030405 43 45 1.7 2.6 0.00 0.00 0.00 75 1015.4
20260506030208 43 45 1.7 2.6 0.00 0.00 0.00 75 1015.4
20260506030005 43 45 0.9 2.6 0.00 0.00 0.00 75 1015.5
20260506025808 43 45 0.9 2.6 0.00 0.00 0.00 75 1015.5
20260506025408 43 45 0.9 2.6 0.00 0.00 0.00 75 1015.5
20260506024808 43 45 0.9 2.6 0.00 0.00 0.00 75 1015.5
20260506024608 43 45 0.9 2.6 0.00 0.00 0.00 75 1015.5
20260506024408 43 45 0.9 2.6 0.00 0.00 0.00 75 1015.5
20260506024208 43 45 0.9 2.6 0.00 0.00 0.00 75 1015.5
20260506024008 43 45 0.9 2.6 0.00 0.00 0.00 75 1015.5
20260506023808 43 45 1.7 3.5 0.00 0.00 0.00 75 1015.6
20260506023607 43 45 1.7 3.5 0.00 0.00 0.00 75 1015.6
20260506023208 43 45 1.7 3.5 0.00 0.00 0.00 74 1015.5
20260506023008 43 45 1.7 3.5 0.00 0.00 0.00 74 1015.5
20260506022808 43 45 1.7 3.5 0.00 0.00 0.00 74 1015.5
20260506022607 43 45 1.7 3.5 0.00 0.00 0.00 74 1015.5
20260506022208 44 45 2.6 3.5 0.00 0.00 0.00 74 1015.5
20260506022008 44 45 2.6 4.3 0.00 0.00 0.00 74 1015.5
20260506021808 44 45 2.6 4.3 0.00 0.00 0.00 74 1015.5
20260506021608 44 45 3.5 4.3 0.00 0.00 0.00 73 1015.5
20260506021408 44 45 3.5 4.3 0.00 0.00 0.00 73 1015.4
20260506021208 44 46 3.5 7.0 0.00 0.00 0.00 73 1015.4
20260506021008 44 46 3.5 7.0 0.00 0.00 0.00 73 1015.4
20260506020808 44 46 3.5 7.0 0.00 0.00 0.00 73 1015.4
20260506020608 44 46 2.6 7.0 0.00 0.00 0.00 73 1015.5
20260506020208 44 45 2.6 6.1 0.00 0.00 0.00 73 1015.5
20260506020008 44 45 2.6 5.2 0.00 0.00 0.00 72 1015.6
20260506015808 44 45 2.6 4.3 0.00 0.00 0.00 73 1015.7
20260506015608 44 46 3.5 4.3 0.00 0.00 0.00 73 1015.8
20260506015408 44 46 3.5 5.2 0.00 0.00 0.00 72 1015.8
20260506015208 44 46 4.3 7.0 0.00 0.00 0.00 73 1015.7
20260506015007 44 45 4.3 7.0 0.00 0.00 0.00 72 1015.8
20260506014808 44 46 4.3 7.0 0.00 0.00 0.00 72 1015.7
20260506014608 44 45 4.3 7.0 0.00 0.00 0.00 72 1015.7
20260506014408 44 46 4.3 7.0 0.00 0.00 0.00 72 1015.7
20260506014208 44 46 4.3 7.0 0.00 0.00 0.00 73 1015.6
20260506014009 44 46 4.3 7.0 0.00 0.00 0.00 73 1015.6
20260506013808 44 45 4.3 7.0 0.00 0.00 0.00 73 1015.7
20260506013608 44 45 3.5 7.0 0.00 0.00 0.00 72 1015.7
20260506013408 44 45 3.5 7.0 0.00 0.00 0.00 72 1015.7
20260506013008 45 45 2.6 7.0 0.00 0.00 0.00 72 1015.7
20260506012808 45 46 1.7 6.1 0.00 0.00 0.00 73 1015.7
20260506012608 45 46 1.7 6.1 0.00 0.00 0.00 73 1015.9
20260506012408 45 46 1.7 6.1 0.00 0.00 0.00 73 1015.8
20260506012207 45 46 1.7 5.2 0.00 0.00 0.00 73 1015.9
20260506011808 45 46 2.6 5.2 0.00 0.00 0.00 74 1015.9
20260506011608 45 46 2.6 5.2 0.00 0.00 0.00 73 1015.8
20260506011408 45 46 3.5 6.1 0.00 0.00 0.00 73 1016.0
20260506011007 45 45 3.5 6.1 0.00 0.00 0.00 73 1015.9
20260506010808 45 46 4.3 6.1 0.00 0.00 0.00 73 1015.9
20260506010608 45 45 4.3 6.1 0.00 0.00 0.00 73 1015.8
20260506010208 45 46 5.2 7.0 0.00 0.00 0.00 74 1015.8
20260506010008 45 45 5.2 7.0 0.00 0.00 0.00 74 1015.8
20260506005808 46 45 5.2 8.7 0.00 0.00 0.00 74 1015.8
20260506005622 46 46 5.2 8.7 0.00 0.00 0.00 74 1015.9
20260506005408 46 45 6.1 8.7 0.00 0.00 0.00 74 1015.9
20260506005208 46 46 6.1 8.7 0.00 0.00 0.00 74 1015.9
20260506005007 46 46 6.1 8.7 0.00 0.00 0.00 74 1015.9
20260506004608 46 45 5.2 11.3 0.00 0.00 0.00 75 1016.0
20260506004408 46 46 5.2 11.3 0.00 0.00 0.00 76 1015.9
20260506004008 46 46 4.3 11.3 0.00 0.00 0.00 76 1015.9
20260506003808 46 46 4.3 11.3 0.00 0.00 0.00 77 1015.9
20260506003608 46 46 4.3 9.6 0.00 0.00 0.00 79 1015.8
20260506003407 45 45 4.3 7.8 0.00 0.00 0.00 80 1015.8
20260506003208 45 46 3.5 7.8 0.00 0.00 0.00 81 1015.8
20260506002608 45 45 2.6 7.8 0.00 0.00 0.00 84 1015.8
20260506002408 45 45 2.6 7.8 0.00 0.00 0.00 84 1015.8
20260506002208 45 45 2.6 7.8 0.00 0.00 0.00 85 1015.8
20260506002007 45 45 1.7 7.8 0.00 0.00 0.00 86 1015.8
20260506001807 45 45 1.7 7.0 0.00 0.00 0.00 86 1015.8
20260506001607 45 45 1.7 3.5 0.00 0.00 0.00 86 1015.8
20260506001407 45 45 1.7 3.5 0.00 0.00 0.00 86 1015.8
20260506001208 44 45 0.9 3.5 0.00 0.00 0.00 86 1015.7
20260506001008 44 45 0.9 3.5 0.00 0.00 0.00 86 1015.7
20260506000608 44 45 0.9 2.6 0.00 0.00 0.00 86 1015.7
20260506000408 44 45 0.9 2.6 0.00 0.00 0.00 86 1015.7
20260506000208 44 45 0.9 2.6 0.00 0.00 0.00 86 1015.8
20260506000008 45 45 0.9 2.6 0.00 0.00 0.00 86 1015.7
20260505235808 45 45 0.9 2.6 0.00 0.00 0.00 86 1015.8
20260505235608 45 45 0.9 2.6 0.00 0.00 0.00 86 1015.7
20260505235408 45 45 0.9 1.7 0.00 0.00 0.00 86 1015.8
20260505235208 45 45 1.7 2.6 0.00 0.00 0.00 86 1015.7
20260505235008 45 45 1.7 2.6 0.00 0.00 0.00 86 1015.7
20260505234808 45 45 1.7 2.6 0.00 0.00 0.00 86 1015.7
20260505234608 45 45 0.9 2.6 0.00 0.00 0.00 86 1015.8
20260505234209 45 45 0.9 2.6 0.00 0.00 0.00 85 1015.7
20260505234008 45 45 0.9 2.6 0.00 0.00 0.00 85 1015.7
20260505233808 45 45 0.0 2.6 0.00 0.00 0.00 85 1015.8
20260505233607 45 45 0.0 2.6 0.00 0.00 0.00 85 1015.8
20260505233408 45 45 0.0 1.7 0.00 0.00 0.00 85 1015.8
20260505233208 45 45 0.0 1.7 0.00 0.00 0.00 85 1015.8
20260505232808 45 0 0.0 0.0 0.00 0.00 0.00 85 1015.7
20260505232608 45 0 0.0 0.0 0.00 0.00 0.00 85 1015.6
20260505232408 45 0 0.0 0.0 0.00 0.00 0.00 85 1015.6
20260505231808 45 0 0.0 0.0 0.00 0.00 0.00 85 1015.7
20260505231608 45 0 0.0 0.0 0.00 0.00 0.00 84 1015.8
20260505231207 45 0 0.0 0.0 0.00 0.00 0.00 84 1015.7
20260505231008 45 0 0.0 0.0 0.00 0.00 0.00 84 1015.9
20260505230808 46 0 0.0 0.0 0.00 0.00 0.00 84 1015.8
20260505230608 46 0 0.0 0.0 0.00 0.00 0.00 84 1015.9
20260505230407 46 0 0.0 0.0 0.00 0.00 0.00 84 1015.9
20260505230208 46 0 0.0 0.0 0.00 0.00 0.00 84 1015.7
20260505230008 46 0 0.0 0.0 0.00 0.00 0.00 84 1015.9
20260505225808 46 0 0.0 0.0 0.00 0.00 0.00 84 1015.8
20260505225608 46 0 0.0 0.0 0.00 0.00 0.00 84 1015.7
20260505225407 46 0 0.0 0.0 0.00 0.00 0.00 83 1015.8
20260505225207 46 0 0.0 0.0 0.00 0.00 0.00 83 1015.8
20260505224807 46 0 0.0 0.0 0.00 0.00 0.00 84 1015.9
20260505224607 46 0 0.0 0.0 0.00 0.00 0.00 84 1015.9
20260505224408 46 0 0.0 0.0 0.00 0.00 0.00 84 1016.0
20260505224208 46 0 0.0 0.0 0.00 0.00 0.00 83 1016.0
20260505224008 46 0 0.0 0.0 0.00 0.00 0.00 83 1016.0
20260505223808 46 0 0.0 0.0 0.00 0.00 0.00 83 1016.0
20260505223608 46 0 0.0 0.0 0.00 0.00 0.00 83 1016.0
20260505223408 46 0 0.0 0.0 0.00 0.00 0.00 83 1016.1
20260505223007 46 0 0.0 0.0 0.00 0.00 0.00 83 1016.1
20260505222807 46 0 0.0 0.0 0.00 0.00 0.00 83 1016.1
20260505222607 46 0 0.0 0.0 0.00 0.00 0.00 83 1016.1
20260505222407 46 0 0.0 0.0 0.00 0.00 0.00 82 1016.1
20260505222207 47 0 0.0 0.0 0.00 0.00 0.00 82 1016.1
20260505222007 47 0 0.0 0.0 0.00 0.00 0.00 82 1016.1
20260505221807 47 0 0.0 0.0 0.00 0.00 0.00 82 1016.0
20260505221607 47 0 0.0 0.0 0.00 0.00 0.00 82 1016.0
20260505221407 47 0 0.0 0.0 0.00 0.00 0.00 82 1016.1
20260505221208 47 0 0.0 0.0 0.00 0.00 0.00 82 1016.1
20260505221007 47 0 0.0 0.0 0.00 0.00 0.00 82 1016.1
20260505220807 47 0 0.0 0.0 0.00 0.00 0.00 82 1016.1
20260505220608 47 0 0.0 0.0 0.00 0.00 0.00 82 1016.1
20260505220407 47 0 0.0 0.0 0.00 0.00 0.00 82 1016.1
20260505220008 47 0 0.0 0.0 0.00 0.00 0.00 81 1016.1
20260505215807 47 0 0.0 0.0 0.00 0.00 0.00 81 1016.1
20260505215607 47 0 0.0 0.0 0.00 0.00 0.00 81 1016.1
20260505215407 47 0 0.0 0.0 0.00 0.00 0.00 81 1016.0
20260505215207 47 0 0.0 0.0 0.00 0.00 0.00 81 1016.0
20260505214808 47 0 0.0 0.0 0.00 0.00 0.00 80 1016.0
20260505214408 47 0 0.0 0.0 0.00 0.00 0.00 80 1016.0
20260505214008 48 0 0.0 0.0 0.00 0.00 0.00 80 1016.1
20260505213808 48 0 0.0 0.0 0.00 0.00 0.00 80 1016.1
20260505213208 48 45 0.9 1.7 0.00 0.00 0.00 79 1016.0
20260505213008 48 45 0.9 1.7 0.00 0.00 0.00 78 1016.1
20260505212808 48 45 0.9 1.7 0.00 0.00 0.00 78 1016.0
20260505212608 48 45 0.9 1.7 0.00 0.00 0.00 78 1016.0
20260505212208 48 45 0.9 1.7 0.00 0.00 0.00 78 1016.0
20260505212008 48 45 0.9 1.7 0.00 0.00 0.00 78 1016.1
20260505211808 49 45 0.9 1.7 0.00 0.00 0.00 78 1016.1
20260505211608 49 45 0.9 1.7 0.00 0.00 0.00 77 1016.0
20260505211408 49 45 0.9 1.7 0.00 0.00 0.00 77 1016.0
20260505211208 49 45 0.9 1.7 0.00 0.00 0.00 77 1016.0
20260505211008 49 45 0.9 1.7 0.00 0.00 0.00 77 1016.1
20260505210808 49 45 0.9 2.6 0.00 0.00 0.00 76 1016.2
20260505210408 49 45 0.9 2.6 0.00 0.00 0.00 76 1016.0
20260505210007 49 45 0.9 2.6 0.00 0.00 0.00 76 1016.1
20260505205808 49 45 0.9 1.7 0.00 0.00 0.00 76 1016.2
20260505205608 49 45 0.0 1.7 0.00 0.00 0.00 75 1016.2
20260505205408 49 45 0.0 1.7 0.00 0.00 0.00 75 1016.2
20260505204608 50 45 0.0 1.7 0.00 0.00 0.00 73 1016.2
20260505204408 50 45 0.9 1.7 0.00 0.00 0.00 73 1016.3
20260505204007 50 45 0.9 1.7 0.00 0.00 0.00 73 1016.1
20260505203807 50 45 0.9 1.7 0.00 0.00 0.00 73 1016.0
20260505203607 50 45 0.9 1.7 0.00 0.00 0.00 72 1016.0
20260505203407 50 45 0.9 1.7 0.00 0.00 0.00 72 1016.0
20260505203207 50 45 0.0 1.7 0.00 0.00 0.00 72 1016.0
20260505203007 50 45 0.0 1.7 0.00 0.00 0.00 72 1016.1
20260505202808 50 45 0.0 1.7 0.00 0.00 0.00 72 1016.1
20260505202608 50 45 0.0 0.9 0.00 0.00 0.00 72 1016.0
20260505202408 50 45 0.0 0.9 0.00 0.00 0.00 72 1016.1
20260505202208 50 45 0.9 0.9 0.00 0.00 0.00 72 1016.2
20260505202008 50 45 0.9 1.7 0.00 0.00 0.00 72 1016.1
20260505201608 51 45 0.9 1.7 0.00 0.00 0.00 72 1016.1
20260505201407 51 45 0.9 2.6 0.00 0.00 0.00 72 1016.0
20260505201007 51 45 0.9 2.6 0.00 0.00 0.00 72 1015.9
20260505200607 51 45 0.9 2.6 0.00 0.00 0.00 71 1015.9
20260505200407 51 45 0.9 1.7 0.00 0.00 0.00 71 1016.0
20260505200207 51 45 0.9 1.7 0.00 0.00 0.00 71 1016.0
20260505200007 51 45 0.9 1.7 0.00 0.00 0.00 71 1016.0
20260505195808 51 45 0.9 1.7 0.00 0.00 0.00 71 1016.0
20260505195608 51 45 0.9 2.6 0.00 0.00 0.00 71 1016.0
20260505195408 51 45 1.7 2.6 0.00 0.00 0.00 71 1016.0
20260505195208 51 45 1.7 2.6 0.00 0.00 0.00 71 1016.0
20260505194808 51 45 1.7 3.5 0.00 0.00 0.00 71 1016.0
20260505194408 51 45 1.7 3.5 0.00 0.00 0.00 70 1016.0
20260505194208 52 45 1.7 4.3 0.00 0.00 0.00 71 1016.0
20260505194008 52 46 1.7 4.3 0.00 0.00 0.00 70 1015.9
20260505193807 52 45 0.9 4.3 0.00 0.00 0.00 70 1016.0
20260505193607 52 46 0.9 4.3 0.00 0.00 0.00 70 1015.9
20260505193407 52 46 0.0 4.3 0.00 0.00 0.00 70 1015.9
20260505193207 52 45 0.0 2.6 0.00 0.00 0.00 70 1016.1
20260505193009 52 45 0.0 2.6 0.00 0.00 0.00 70 1016.1
20260505192807 52 45 0.0 2.6 0.00 0.00 0.00 70 1016.1
20260505192607 52 0 0.0 0.0 0.00 0.00 0.00 70 1016.1
20260505192408 52 0 0.0 0.0 0.00 0.00 0.00 70 1016.0
20260505192208 52 0 0.0 0.0 0.00 0.00 0.00 70 1016.0
20260505192008 52 0 0.0 0.0 0.00 0.00 0.00 69 1015.9
20260505191808 52 0 0.0 0.0 0.00 0.00 0.00 70 1015.8
20260505191608 52 0 0.0 0.0 0.00 0.00 0.00 69 1015.8
20260505191408 52 0 0.0 0.0 0.00 0.00 0.00 69 1015.8
20260505191208 52 0 0.0 0.0 0.00 0.00 0.00 69 1015.9
20260505190808 52 45 0.9 0.9 0.00 0.00 0.00 71 1015.6
20260505190608 52 45 0.9 1.7 0.00 0.00 0.00 71 1015.5
20260505190408 52 45 1.7 2.6 0.00 0.00 0.00 71 1015.4
20260505190208 52 45 1.7 2.6 0.00 0.00 0.00 70 1015.5
20260505190008 52 45 1.7 2.6 0.00 0.00 0.00 70 1015.5
20260505185808 52 45 1.7 2.6 0.00 0.00 0.00 70 1015.5